Weather History for KALW - May, 2013

Change the Weather History Date:

Monday, May 27, 2013

  Actual Average Record
Temperature  
Mean Temperature 57 °F -  
Max Temperature 69 °F 72 °F 94 °F (1983)
Min Temperature 48 °F 50 °F 39 °F (1955)
Degree Days  
Heating Degree Days 8    
Growing Degree Days 7 (Base 50)    
Moisture  
Dew Point 47 °F    
Average Humidity 67    
Maximum Humidity 87    
Minimum Humidity 42    
Precipitation  
Precipitation 0.03 in - - ()
Sea Level Pressure  
Sea Level Pressure 29.87 in    
Wind  
Wind Speed 8 mph (SSE)    
Max Wind Speed 18 mph    
Max Gust Speed 26 mph    
Visibility 10 miles    
Events Rain    
Averages and records for this station are not official NWS values.
T = Trace of Precipitation, MM = Missing Value Source: NWS Daily Summary

Daily Weather History Graph

Daily Weather History Graph

Search for Another Location

Airport or City:

Trip Planner

Search our weather history database for the weather conditions in past years. The results will help you decide how hot, cold, wet, or windy it might be!

Date:

Astronomy

May. 27, 2013 Rise Set
Actual Time 5:08 AM PDT 8:32 PM PDT
Civil Twilight 4:31 AM PDT 9:09 PM PDT
Nautical Twilight 3:43 AM PDT 9:58 PM PDT
Astronomical Twilight 2:41 AM PDT 11:00 PM PDT
Moon 11:10 PM PDT (5/27) 7:54 AM PDT (5/27)
Length of Visible Light 16h 37m
Length of Day
15h 23m
Waning Gibbous, 90% of the Moon is Illuminated
May 27
Waning Gibbous
May 31
Last Quarter
Jun 8
New
Jun 16
First Quarter
Jun 23
Full

Hourly Weather History & Observations

Time (PDT) Temp. Dew Point Humidity Pressure Visibility Wind Dir Wind Speed Gust Speed Precip Events Conditions
12:53 AM 57.0 °F 43.0 °F 59% 29.99 in 10.0 mi South 11.5 mph - N/A   Overcast
1:53 AM 54.0 °F 43.0 °F 66% 29.98 in 10.0 mi South 11.5 mph - N/A   Clear
2:53 AM 54.0 °F 42.1 °F 64% 29.97 in 10.0 mi South 10.4 mph - N/A   Clear
3:53 AM 52.0 °F 41.0 °F 66% 29.97 in 10.0 mi South 9.2 mph - N/A   Clear
4:53 AM 48.0 °F 41.0 °F 77% 29.96 in 10.0 mi ESE 5.8 mph - N/A   Clear
5:53 AM 50.0 °F 42.1 °F 74% 29.94 in 10.0 mi East 6.9 mph - N/A   Clear
6:53 AM 55.9 °F 43.0 °F 62% 29.92 in 10.0 mi East 5.8 mph - N/A   Clear
7:53 AM 61.0 °F 42.1 °F 50% 29.90 in 10.0 mi NE 3.5 mph - N/A   Clear
8:53 AM 63.0 °F 43.0 °F 48% 29.87 in 10.0 mi NNE 5.8 mph - N/A   Clear
9:53 AM 64.9 °F 44.1 °F 47% 29.85 in 10.0 mi NNW 5.8 mph - N/A   Clear
10:53 AM 66.9 °F 43.0 °F 42% 29.84 in 9.0 mi WNW 4.6 mph - N/A   Clear
11:53 AM 66.9 °F 43.0 °F 42% 29.84 in 10.0 mi West 8.1 mph - N/A   Mostly Cloudy
12:53 PM 66.0 °F 43.0 °F 43% 29.84 in 10.0 mi WSW 18.4 mph 26.5 mph N/A   Mostly Cloudy
1:33 PM 60.8 °F 48.2 °F 63% 29.87 in 10.0 mi WSW 17.3 mph - 0.00 in Rain Light Rain
1:53 PM 60.1 °F 48.0 °F 64% 29.87 in 10.0 mi West 12.7 mph - 0.00 in Rain Light Rain
2:53 PM 57.9 °F 48.9 °F 72% 29.87 in 10.0 mi West 4.6 mph - 0.00 in Rain Light Rain
3:53 PM 59.0 °F 50.0 °F 72% 29.85 in 8.0 mi SW 3.5 mph - 0.01 in Rain Light Rain
4:53 PM 59.0 °F 52.0 °F 78% 29.84 in 10.0 mi SE 4.6 mph - 0.01 in Rain Light Rain
5:53 PM 59.0 °F 52.0 °F 78% 29.83 in 10.0 mi Calm Calm - 0.00 in Rain Light Rain
6:53 PM 57.9 °F 53.1 °F 84% 29.81 in 10.0 mi SE 5.8 mph - 0.01 in Rain Light Rain
7:53 PM 57.9 °F 53.1 °F 84% 29.79 in 10.0 mi ESE 5.8 mph - 0.00 in Rain Light Rain
8:53 PM 57.9 °F 52.0 °F 81% 29.78 in 10.0 mi SE 3.5 mph - 0.00 in   Overcast
9:53 PM 55.9 °F 52.0 °F 87% 29.78 in 10.0 mi East 6.9 mph - N/A   Mostly Cloudy
10:53 PM 57.0 °F 50.0 °F 77% 29.77 in 10.0 mi Calm Calm - N/A   Overcast
11:53 PM 55.9 °F 51.1 °F 84% 29.77 in 10.0 mi ESE 3.5 mph - N/A   Overcast